TimeEST,TemperatureF,Dew PointF,Humidity,Sea Level PressureIn,VisibilityMPH,Wind Direction,Wind SpeedMPH,Gust SpeedMPH,PrecipitationIn,Events,Conditions,WindDirDegrees,DateUTC
12:54 AM,30.0,12.9,49,30.21,10.0,Calm,Calm,-,N/A,,Clear,0,2013-02-19 05:54:00
1:54 AM,30.0,14.0,51,30.18,10.0,Calm,Calm,-,N/A,,Clear,0,2013-02-19 06:54:00
2:54 AM,28.0,15.1,58,30.15,10.0,Calm,Calm,-,N/A,,Clear,0,2013-02-19 07:54:00
3:54 AM,25.0,16.0,69,30.14,10.0,Calm,Calm,-,N/A,,Clear,0,2013-02-19 08:54:00
4:54 AM,26.1,17.1,69,30.11,10.0,SE,4.6,-,N/A,,Clear,140,2013-02-19 09:54:00
5:54 AM,25.0,18.0,75,30.09,10.0,ESE,3.5,-,N/A,,Clear,120,2013-02-19 10:54:00
6:54 AM,26.1,19.0,75,30.07,10.0,East,3.5,-,N/A,,Clear,80,2013-02-19 11:54:00
7:54 AM,28.9,23.0,78,30.06,10.0,ESE,3.5,-,N/A,,Clear,110,2013-02-19 12:54:00
8:54 AM,36.0,25.0,64,30.03,10.0,SE,3.5,-,N/A,,Clear,140,2013-02-19 13:54:00
9:54 AM,44.1,24.1,45,30.00,10.0,SSW,15.0,25.3,N/A,,Clear,210,2013-02-19 14:54:00
10:54 AM,46.0,28.0,50,29.98,10.0,SW,16.1,23.0,N/A,,Scattered Clouds,220,2013-02-19 15:54:00
11:54 AM,43.0,33.1,68,29.96,8.0,SSW,8.1,21.9,0.01,Rain,Light Rain,200,2013-02-19 16:54:00
1:54 PM,43.0,39.0,86,29.86,8.0,South,5.8,-,0.04,Rain,Light Rain,190,2013-02-19 18:54:00
2:05 PM,42.8,39.2,87,29.85,6.0,Variable,6.9,-,0.00,Rain,Light Rain,0,2013-02-19 19:05:00
2:28 PM,42.8,39.2,87,29.82,5.0,South,6.9,-,0.02,Rain,Light Rain,170,2013-02-19 19:28:00
2:46 PM,42.8,41.0,93,29.81,4.0,South,6.9,-,0.03,Rain,Light Rain,170,2013-02-19 19:46:00
2:54 PM,43.0,41.0,93,29.80,4.0,South,6.9,-,0.04,Rain,Light Rain,170,2013-02-19 19:54:00
3:09 PM,44.6,42.8,93,29.79,7.0,South,5.8,-,0.01,Rain,Light Rain,180,2013-02-19 20:09:00
3:54 PM,45.0,42.1,90,29.77,10.0,SSW,11.5,18.4,0.02,Rain,Light Rain,210,2013-02-19 20:54:00
4:54 PM,45.0,42.1,90,29.76,5.0,SSW,10.4,-,0.03,Rain,Light Rain,210,2013-02-19 21:54:00
5:08 PM,44.6,41.0,87,29.75,4.0,SSW,10.4,-,0.02,Rain,Light Rain,210,2013-02-19 22:08:00
5:30 PM,44.6,35.6,71,29.74,5.0,SSW,8.1,-,0.04,Rain,Light Rain,210,2013-02-19 22:30:00
5:54 PM,45.0,32.0,60,29.73,10.0,SSW,8.1,-,0.04,Rain,Light Rain,210,2013-02-19 22:54:00
7:41 PM,44.6,30.2,57,29.73,10.0,West,19.6,24.2,N/A,,Overcast,260,2013-02-20 00:41:00
7:54 PM,44.1,30.9,60,29.74,10.0,West,13.8,-,N/A,,Overcast,280,2013-02-20 00:54:00
8:22 PM,44.6,30.2,57,29.74,10.0,West,10.4,19.6,N/A,,Mostly Cloudy,280,2013-02-20 01:22:00
8:54 PM,43.0,30.9,62,29.75,10.0,West,11.5,19.6,N/A,,Overcast,280,2013-02-20 01:54:00
9:54 PM,41.0,30.0,65,29.78,10.0,West,16.1,23.0,N/A,,Clear,280,2013-02-20 02:54:00
10:54 PM,37.9,27.0,65,29.80,10.0,West,9.2,-,N/A,,Clear,280,2013-02-20 03:54:00
11:54 PM,36.0,26.1,67,29.81,10.0,WNW,6.9,-,N/A,,Clear,290,2013-02-20 04:54:00